Location: Archemont
(49.1579°N, 1.7598°E)
Time: 01:00:57
(UTC+00:00)

Vanguard 3 - Pass Details

Date: 19 April 2024
Orbit: 509 x 3233 km, 33.3° (Epoch: 24 May)

Event Time Altitude Azimuth Distance (km) Brightness Sun altitude
Exits shadow 02:24:24 11° 180° (S) 5,034 10.7 -20.9°
Maximum altitude 02:30:08 15° 155° (SSE) 4,221 10.5 -20.3°
Drops below altitude 10° 02:35:27 10° 126° (SE) 4,050 10.8 -19.7°
Sets 02:40:05 0° 104° (ESE) 4,507 11.4 -19.2°
